Flag for U.S.A. Weather past 2 weeks in Milwaukee, Wisconsin, U.S.A.

Now
50 °F

Low clouds.


Feels Like: 47 °F
Forecast: 51 / 60 °F
Wind: 8 mph from North

Location: Milwaukee / Timmerman

Current Time: Sep 18, 2014 at 6:50:11 AM

Latest Report: Sep 18, 2014 at 6:15 AM


Visibility: 10 mi

Pressure: 30.12 "Hg

Humidity: 82%

Dew point: 45 °F

Location of MilwaukeeLocation

Historic Weather in Milwaukee — Graph

°F

Milwaukee temperature yesterday

Maximum temperature yesterday: 68 °F (at 2:45 PM)
Minimum temperature yesterday: 41 °F (at 3:55 AM)
Average temperature yesterday: 51 °F

Past Weeks' High & Low Weather Summary

 TemperatureHumidityPressure
High82 °F (Sep 4, 1:45 PM)94% (Sep 7, 5:15 AM)30.38 "Hg (Sep 7, 5:15 AM)
Low37 °F (Sep 13, 2:35 AM)32% (Sep 7, 1:45 PM)29.48 "Hg (Sep 10, 12:45 PM)
Average57 °F75%30.09 "Hg
* Reported Sep 3 5:15 AM — Sep 18 5:55 AM, Milwaukee, Weather by CustomWeather, © 2014

Note: Actual official high and low records may vary slightly from our data, if they occured in-between our weather recording intervals... More about our weather records

Advertising

Milwaukee weather history for previous 24 hours

 ConditionsComfort  
Time TempWeatherWind HumidityBarometerVisibility
5:55 AM
Sep 18
50 °FLow clouds.8 mph82%30.12 "Hg10 mi
5:15 AM50 °FLow clouds.8 mph88%30.11 "Hg10 mi
4:55 AM50 °FLow clouds.8 mph88%30.11 "Hg10 mi
4:35 AM50 °FLow clouds.7 mph88%30.11 "Hg10 mi
4:15 AM50 °FLow clouds.8 mph88%30.11 "Hg10 mi
3:55 AM50 °FLow clouds.7 mph88%30.10 "Hg10 mi
3:35 AM50 °FLow clouds.9 mph88%30.09 "Hg10 mi
3:15 AM50 °FPassing clouds.8 mph82%30.09 "Hg10 mi
2:55 AM50 °FClear.6 mph82%30.09 "Hg10 mi
2:35 AM50 °FClear.8 mph88%30.08 "Hg10 mi
2:15 AM50 °FClear.8 mph88%30.08 "Hg10 mi
1:55 AM52 °FClear.8 mph82%30.08 "Hg10 mi
1:35 AM52 °FClear.7 mph82%30.07 "Hg10 mi
1:15 AM48 °FClear.6 mph94%30.06 "Hg7 mi
12:55 AM50 °FClear.No wind82%30.05 "Hg10 mi
12:35 AM50 °FClear.No wind82%30.05 "Hg10 mi
12:15 AM50 °FClear.No wind88%30.05 "Hg10 mi
11:55 PM
Sep 17
50 °FClear.No wind82%30.04 "Hg10 mi
11:15 PM52 °FClear.No wind82%30.04 "Hg10 mi
10:55 PM52 °FClear.No wind82%30.04 "Hg10 mi
10:15 PM54 °FClear.No wind77%30.03 "Hg10 mi
9:55 PM54 °FClear.No wind77%30.03 "Hg10 mi
9:35 PM52 °FClear.No wind82%30.02 "Hg10 mi
9:15 PM54 °FClear.No wind72%30.02 "Hg10 mi
8:45 PM55 °FClear.No wind72%30.01 "Hg10 mi
7:45 PM59 °FSunny.5 mph63%30.00 "Hg10 mi
5:45 PM64 °FScattered clouds.6 mph52%29.98 "Hg10 mi
4:45 PM66 °FScattered clouds.7 mph49%29.98 "Hg10 mi
3:45 PM68 °FOvercast.5 mph40%29.98 "Hg10 mi
2:45 PM68 °FScattered clouds.6 mph40%29.99 "Hg10 mi
1:45 PM66 °FScattered clouds.8 mph43%30.00 "Hg10 mi
12:45 PM63 °FSunny.8 mph49%30.01 "Hg10 mi
11:45 AM61 °FSunny.5 mph48%30.01 "Hg10 mi
10:45 AM63 °FSunny.9 mph52%30.03 "Hg10 mi
9:45 AM61 °FSunny.5 mph55%30.03 "Hg10 mi
8:45 AM54 °FScattered clouds.5 mph72%30.04 "Hg10 mi
7:45 AM46 °FScattered clouds.No wind87%30.05 "Hg10 mi
6:45 AM43 °FPassing clouds.No wind87%30.05 "Hg10 mi
6:35 AM43 °FPassing clouds.No wind93%30.05 "Hg10 mi
6:15 AM41 °FPassing clouds.No wind87%30.04 "Hg10 mi
Weather by CustomWeather, © 2014

See weather overviewHow to use our weather pages